Time,TemperatureF,DewpointF,PressureIn,WindDirection,WindDirectionDegrees,WindSpeedMPH,WindSpeedGustMPH,Humidity,HourlyPrecipIn,Conditions,Clouds,dailyrainin,SoftwareType,DateUTC
2013-01-23 00:09:00,28.2,2.0,30.30,SE,131,0.0,2.0,33,0.00,,,0.00,weatherlink.com 1.10,2013-01-23 05:09:00,
2013-01-23 00:24:00,27.6,4.0,30.30,SE,139,0.0,0.0,37,0.00,,,0.00,weatherlink.com 1.10,2013-01-23 05:24:00,
2013-01-23 00:39:00,27.3,3.0,30.30,SE,130,0.0,0.0,36,0.00,,,0.00,weatherlink.com 1.10,2013-01-23 05:39:00,
2013-01-23 00:54:00,27.4,4.0,30.30,ESE,118,0.0,2.0,37,0.00,,,0.00,weatherlink.com 1.10,2013-01-23 05:54:00,
2013-01-23 01:09:00,28.1,7.0,30.31,SSE,147,0.0,2.0,40,0.00,,,0.00,weatherlink.com 1.10,2013-01-23 06:09:00,
2013-01-23 01:24:00,27.1,6.0,30.31,SE,142,0.0,0.0,40,0.00,,,0.00,weatherlink.com 1.10,2013-01-23 06:24:00,
2013-01-23 01:39:00,26.9,8.0,30.32,SW,215,0.0,1.0,44,0.00,,,0.00,weatherlink.com 1.10,2013-01-23 06:39:00,
2013-01-23 01:54:00,26.6,8.0,30.32,South,190,0.0,0.0,45,0.00,,,0.00,weatherlink.com 1.10,2013-01-23 06:54:00,
2013-01-23 02:09:00,27.0,10.0,30.32,SSW,203,1.0,2.0,48,0.00,,,0.00,weatherlink.com 1.10,2013-01-23 07:09:00,
2013-01-23 02:25:00,27.5,10.0,30.32,SSW,200,1.0,3.0,48,0.00,,,0.00,weatherlink.com 1.10,2013-01-23 07:25:00,
2013-01-23 02:40:00,27.7,10.0,30.32,SW,217,1.0,3.0,48,0.00,,,0.00,weatherlink.com 1.10,2013-01-23 07:40:00,
2013-01-23 02:55:00,27.6,10.0,30.32,SW,233,1.0,1.0,48,0.00,,,0.00,weatherlink.com 1.10,2013-01-23 07:55:00,
2013-01-23 03:10:00,27.6,10.0,30.33,SSW,212,0.0,2.0,48,0.00,,,0.00,weatherlink.com 1.10,2013-01-23 08:10:00,
2013-01-23 03:25:00,27.7,9.0,30.33,SSW,194,0.0,2.0,46,0.00,,,0.00,weatherlink.com 1.10,2013-01-23 08:25:00,
2013-01-23 03:40:00,28.3,9.0,30.33,SW,219,0.0,2.0,45,0.00,,,0.00,weatherlink.com 1.10,2013-01-23 08:40:00,
2013-01-23 03:55:00,28.4,9.0,30.33,SE,128,0.0,3.0,44,0.00,,,0.00,weatherlink.com 1.10,2013-01-23 08:55:00,
2013-01-23 04:10:00,28.0,9.0,30.33,South,176,2.0,3.0,45,0.00,,,0.00,weatherlink.com 1.10,2013-01-23 09:10:00,
2013-01-23 04:25:00,28.3,10.0,30.33,SW,229,1.0,3.0,46,0.00,,,0.00,weatherlink.com 1.10,2013-01-23 09:25:00,
2013-01-23 04:40:00,27.5,11.0,30.33,ENE,75,1.0,2.0,50,0.00,,,0.00,weatherlink.com 1.10,2013-01-23 09:40:00,
2013-01-23 04:55:00,25.4,13.0,30.34,ENE,63,3.0,12.0,60,0.00,,,0.00,weatherlink.com 1.10,2013-01-23 09:55:00,
2013-01-23 05:10:00,24.7,13.0,30.34,NE,46,0.0,5.0,61,0.00,,,0.00,weatherlink.com 1.10,2013-01-23 10:10:00,
2013-01-23 05:25:00,24.5,12.0,30.34,ESE,110,1.0,4.0,59,0.00,,,0.00,weatherlink.com 1.10,2013-01-23 10:25:00,
2013-01-23 05:40:00,24.6,13.0,30.34,NE,49,3.0,4.0,61,0.00,,,0.00,weatherlink.com 1.10,2013-01-23 10:40:00,
2013-01-23 05:55:00,24.4,12.0,30.34,ENE,68,2.0,3.0,59,0.00,,,0.00,weatherlink.com 1.10,2013-01-23 10:55:00,
2013-01-23 06:10:00,24.3,11.0,30.34,ENE,67,4.0,5.0,57,0.00,,,0.00,weatherlink.com 1.10,2013-01-23 11:10:00,
2013-01-23 06:25:00,23.6,13.0,30.35,West,268,0.0,2.0,64,0.00,,,0.00,weatherlink.com 1.10,2013-01-23 11:25:00,
2013-01-23 06:40:00,22.7,11.0,30.35,SE,139,0.0,1.0,62,0.00,,,0.00,weatherlink.com 1.10,2013-01-23 11:40:00,
2013-01-23 06:55:00,22.1,12.0,30.36,NNW,341,0.0,3.0,65,0.00,,,0.00,weatherlink.com 1.10,2013-01-23 11:55:00,
2013-01-23 07:10:00,22.1,14.0,30.36,NE,46,0.0,1.0,70,0.00,,,0.00,weatherlink.com 1.10,2013-01-23 12:10:00,
2013-01-23 07:25:00,22.3,14.0,30.36,ENE,67,2.0,2.0,69,0.00,,,0.00,weatherlink.com 1.10,2013-01-23 12:25:00,
2013-01-23 07:40:00,22.0,14.0,30.37,NNE,13,0.0,0.0,71,0.00,,,0.00,weatherlink.com 1.10,2013-01-23 12:40:00,
2013-01-23 07:55:00,22.7,14.0,30.37,East,84,0.0,1.0,69,0.00,,,0.00,weatherlink.com 1.10,2013-01-23 12:55:00,
2013-01-23 08:10:00,23.5,13.0,30.37,ENE,78,0.0,0.0,65,0.00,,,0.00,weatherlink.com 1.10,2013-01-23 13:10:00,
2013-01-23 08:25:00,25.1,14.0,30.37,ENE,63,1.0,3.0,62,0.00,,,0.00,weatherlink.com 1.10,2013-01-23 13:25:00,
2013-01-23 08:40:00,26.8,14.0,30.38,ENE,69,2.0,2.0,58,0.00,,,0.00,weatherlink.com 1.10,2013-01-23 13:40:00,
2013-01-23 08:55:00,27.7,14.0,30.38,East,86,0.0,2.0,57,0.00,,,0.00,weatherlink.com 1.10,2013-01-23 13:55:00,
2013-01-23 09:10:00,29.3,14.0,30.38,ENE,75,1.0,3.0,54,0.00,,,0.00,weatherlink.com 1.10,2013-01-23 14:10:00,
2013-01-23 09:25:00,30.9,15.0,30.39,East,101,1.0,4.0,51,0.00,,,0.00,weatherlink.com 1.10,2013-01-23 14:25:00,
2013-01-23 09:40:00,32.6,14.0,30.39,SW,221,4.0,4.0,46,0.00,,,0.00,weatherlink.com 1.10,2013-01-23 14:40:00,
2013-01-23 09:55:00,33.1,15.0,30.39,SSW,201,4.0,4.0,47,0.00,,,0.00,weatherlink.com 1.10,2013-01-23 14:55:00,
2013-01-23 10:10:00,34.8,15.0,30.39,SSW,193,1.0,6.0,45,0.00,,,0.00,weatherlink.com 1.10,2013-01-23 15:10:00,
2013-01-23 10:25:00,35.0,15.0,30.40,West,267,2.0,8.0,44,0.00,,,0.00,weatherlink.com 1.10,2013-01-23 15:25:00,
2013-01-23 10:41:00,36.0,15.0,30.40,West,269,3.0,9.0,43,0.00,,,0.00,weatherlink.com 1.10,2013-01-23 15:41:00,
2013-01-23 10:56:00,36.6,16.0,30.39,WNW,288,4.0,5.0,43,0.00,,,0.00,weatherlink.com 1.10,2013-01-23 15:56:00,
2013-01-23 11:11:00,37.9,17.0,30.39,SW,235,8.0,8.0,43,0.00,,,0.00,weatherlink.com 1.10,2013-01-23 16:11:00,
2013-01-23 11:26:00,38.7,17.0,30.38,SSE,152,3.0,9.0,41,0.00,,,0.00,weatherlink.com 1.10,2013-01-23 16:26:00,
2013-01-23 11:41:00,39.2,18.0,30.37,SW,231,6.0,13.0,42,0.00,,,0.00,weatherlink.com 1.10,2013-01-23 16:41:00,
2013-01-23 11:56:00,40.4,17.0,30.36,South,188,6.0,12.0,39,0.00,,,0.00,weatherlink.com 1.10,2013-01-23 16:56:00,
2013-01-23 12:11:00,40.5,17.0,30.35,SSW,211,5.0,12.0,39,0.00,,,0.00,weatherlink.com 1.10,2013-01-23 17:11:00,
2013-01-23 12:26:00,40.8,17.0,30.33,SSW,208,12.0,13.0,39,0.00,,,0.00,weatherlink.com 1.10,2013-01-23 17:26:00,
2013-01-23 12:41:00,41.1,18.0,30.32,WSW,250,6.0,11.0,39,0.00,,,0.00,weatherlink.com 1.10,2013-01-23 17:41:00,
2013-01-23 12:56:00,41.7,17.0,30.30,SW,216,12.0,14.0,37,0.00,,,0.00,weatherlink.com 1.10,2013-01-23 17:56:00,
2013-01-23 13:11:00,42.5,18.0,30.29,SW,226,11.0,13.0,37,0.00,,,0.00,weatherlink.com 1.10,2013-01-23 18:11:00,
2013-01-23 13:26:00,42.3,18.0,30.28,WSW,254,6.0,14.0,37,0.00,,,0.00,weatherlink.com 1.10,2013-01-23 18:26:00,
2013-01-23 13:41:00,43.6,19.0,30.27,SSW,208,4.0,14.0,38,0.00,,,0.00,weatherlink.com 1.10,2013-01-23 18:41:00,
2013-01-23 13:56:00,44.0,18.0,30.27,SSE,163,9.0,13.0,35,0.00,,,0.00,weatherlink.com 1.10,2013-01-23 18:56:00,
2013-01-23 14:11:00,44.3,19.0,30.26,SSW,201,5.0,16.0,37,0.00,,,0.00,weatherlink.com 1.10,2013-01-23 19:11:00,
2013-01-23 14:26:00,44.2,18.0,30.26,SSW,198,6.0,14.0,35,0.00,,,0.00,weatherlink.com 1.10,2013-01-23 19:26:00,
2013-01-23 14:41:00,45.0,19.0,30.25,SW,219,8.0,15.0,35,0.00,,,0.00,weatherlink.com 1.10,2013-01-23 19:41:00,
2013-01-23 14:56:00,45.1,19.0,30.25,SW,224,7.0,12.0,36,0.00,,,0.00,weatherlink.com 1.10,2013-01-23 19:56:00,
2013-01-23 15:11:00,45.6,19.0,30.25,SW,225,10.0,11.0,35,0.00,,,0.00,weatherlink.com 1.10,2013-01-23 20:11:00,
2013-01-23 15:26:00,45.8,20.0,30.25,SW,235,6.0,12.0,36,0.00,,,0.00,weatherlink.com 1.10,2013-01-23 20:26:00,
2013-01-23 15:41:00,46.1,20.0,30.24,SSW,203,9.0,14.0,35,0.00,,,0.00,weatherlink.com 1.10,2013-01-23 20:41:00,
2013-01-23 15:56:00,46.1,20.0,30.23,WSW,252,11.0,14.0,36,0.00,,,0.00,weatherlink.com 1.10,2013-01-23 20:56:00,
2013-01-23 16:11:00,46.7,21.0,30.23,SSE,165,5.0,10.0,36,0.00,,,0.00,weatherlink.com 1.10,2013-01-23 21:11:00,
2013-01-23 16:26:00,47.0,22.0,30.22,SSE,167,4.0,10.0,37,0.00,,,0.00,weatherlink.com 1.10,2013-01-23 21:26:00,
2013-01-23 16:56:00,47.3,22.0,30.21,South,178,6.0,7.0,37,0.00,,,0.00,weatherlink.com 1.10,2013-01-23 21:56:00,
2013-01-23 17:11:00,47.3,23.0,30.21,SSE,164,3.0,6.0,38,0.00,,,0.00,weatherlink.com 1.10,2013-01-23 22:11:00,
2013-01-23 17:26:00,47.4,23.0,30.21,SW,226,0.0,0.0,38,0.00,,,0.00,weatherlink.com 1.10,2013-01-23 22:26:00,
2013-01-23 17:41:00,45.8,23.0,30.21,ENE,77,1.0,2.0,41,0.00,,,0.00,weatherlink.com 1.10,2013-01-23 22:41:00,
2013-01-23 18:12:00,43.3,23.0,30.20,ENE,72,3.0,3.0,45,0.00,,,0.00,weatherlink.com 1.10,2013-01-23 23:12:00,
2013-01-23 18:27:00,43.2,23.0,30.20,ENE,77,3.0,4.0,45,0.00,,,0.00,weatherlink.com 1.10,2013-01-23 23:27:00,
2013-01-23 18:42:00,42.6,23.0,30.19,ENE,77,3.0,4.0,46,0.00,,,0.00,weatherlink.com 1.10,2013-01-23 23:42:00,
2013-01-23 18:57:00,42.5,23.0,30.18,ENE,75,5.0,5.0,47,0.00,,,0.00,weatherlink.com 1.10,2013-01-23 23:57:00,
2013-01-23 19:12:00,41.7,23.0,30.18,ENE,77,4.0,4.0,48,0.00,,,0.00,weatherlink.com 1.10,2013-01-24 00:12:00,
2013-01-23 19:27:00,41.4,24.0,30.18,ESE,122,2.0,7.0,50,0.00,,,0.00,weatherlink.com 1.10,2013-01-24 00:27:00,
2013-01-23 19:42:00,40.9,24.0,30.18,East,89,3.0,5.0,52,0.00,,,0.00,weatherlink.com 1.10,2013-01-24 00:42:00,
2013-01-23 19:57:00,40.9,25.0,30.16,ESE,121,2.0,6.0,53,0.00,,,0.00,weatherlink.com 1.10,2013-01-24 00:57:00,
2013-01-23 20:12:00,40.7,26.0,30.16,SE,134,2.0,5.0,56,0.00,,,0.00,weatherlink.com 1.10,2013-01-24 01:12:00,
2013-01-23 20:27:00,40.4,26.0,30.16,SE,124,2.0,4.0,57,0.00,,,0.00,weatherlink.com 1.10,2013-01-24 01:27:00,
2013-01-23 20:42:00,39.7,26.0,30.16,ESE,112,0.0,3.0,59,0.00,,,0.00,weatherlink.com 1.10,2013-01-24 01:42:00,
2013-01-23 20:57:00,39.4,27.0,30.16,SE,132,1.0,3.0,61,0.00,,,0.00,weatherlink.com 1.10,2013-01-24 01:57:00,
2013-01-23 21:12:00,39.3,28.0,30.16,ESE,110,1.0,4.0,63,0.00,,,0.00,weatherlink.com 1.10,2013-01-24 02:12:00,
2013-01-23 21:27:00,39.4,28.0,30.15,SE,141,1.0,3.0,64,0.00,,,0.00,weatherlink.com 1.10,2013-01-24 02:27:00,
2013-01-23 21:42:00,39.9,29.0,30.14,SE,143,3.0,5.0,64,0.00,,,0.00,weatherlink.com 1.10,2013-01-24 02:42:00,
2013-01-23 21:57:00,40.3,28.0,30.15,South,188,2.0,6.0,63,0.00,,,0.00,weatherlink.com 1.10,2013-01-24 02:57:00,
2013-01-23 22:12:00,40.3,29.0,30.14,SSE,155,4.0,5.0,64,0.00,,,0.00,weatherlink.com 1.10,2013-01-24 03:12:00,
2013-01-23 22:27:00,40.0,29.0,30.14,SSW,193,3.0,6.0,64,0.00,,,0.00,weatherlink.com 1.10,2013-01-24 03:27:00,
2013-01-23 22:42:00,39.7,28.0,30.13,SW,222,3.0,5.0,64,0.00,,,0.00,weatherlink.com 1.10,2013-01-24 03:42:00,
2013-01-23 22:57:00,38.8,28.0,30.13,SW,214,2.0,3.0,66,0.00,,,0.00,weatherlink.com 1.10,2013-01-24 03:57:00,
2013-01-23 23:12:00,39.4,28.0,30.12,SSW,200,2.0,5.0,65,0.00,,,0.00,weatherlink.com 1.10,2013-01-24 04:12:00,
2013-01-23 23:27:00,39.9,29.0,30.12,SW,214,2.0,7.0,64,0.00,,,0.00,weatherlink.com 1.10,2013-01-24 04:27:00,
2013-01-23 23:43:00,39.7,28.0,30.11,SSW,203,3.0,4.0,64,0.00,,,0.00,weatherlink.com 1.10,2013-01-24 04:43:00,
2013-01-23 23:57:00,39.6,28.0,30.11,SW,225,4.0,6.0,64,0.00,,,0.00,weatherlink.com 1.10,2013-01-24 04:57:00,